| time (UTC) | temp F | wind direction | speed MPH | gust MPH | rain 1hr in | rain 24hr in | rain mn in | humidity % | barometer mb |
| 20260904111131 | 76 | 284 | 0.0 | 0.0 | 0.01 | 0.00 | 0.00 | 24 | |
| 20260904110632 | 76 | 262 | 13.0 | 0.0 | 0.01 | 0.00 | 0.00 | 23 | |
| 20260904110132 | 76 | 225 | 0.0 | 0.0 | 0.01 | 0.00 | 0.00 | 23 | |
| 20260904105630 | 76 | 225 | 0.0 | 0.0 | 0.01 | 0.00 | 0.00 | 22 | |
| 20260904105131 | 76 | 291 | 0.0 | 0.0 | 0.01 | 0.00 | 0.00 | 21 | |
| 20260904104631 | 76 | 283 | 0.0 | 0.0 | 0.01 | 0.00 | 0.00 | 22 | |
| 20260904104131 | 76 | 283 | 0.0 | 0.0 | 0.01 | 0.00 | 0.00 | 21 | |
| 20260904103630 | 76 | 283 | 0.0 | 0.0 | 0.01 | 0.00 | 0.00 | 20 | |
| 20260904103132 | 77 | 283 | 0.0 | 0.0 | 0.01 | 0.00 | 0.00 | 20 | |
| 20260904102630 | 77 | 283 | 0.0 | 0.0 | 0.01 | 0.00 | 0.00 | 19 | |
| 20260904102130 | 77 | 283 | 0.0 | 0.0 | 0.01 | 0.00 | 0.00 | 18 | |
| 20260904101630 | 77 | 283 | 0.0 | 0.0 | 0.01 | 0.00 | 0.00 | 17 | |
| 20260904101130 | 77 | 283 | 0.0 | 0.0 | 0.01 | 0.00 | 0.00 | 15 | |
| 20260904100630 | 77 | 283 | 0.0 | 0.0 | 0.01 | 0.00 | 0.00 | 14 | |
| 20260904100132 | 77 | 283 | 0.0 | 0.0 | 0.01 | 0.00 | 0.00 | 13 | |
| 20260904095631 | 77 | 283 | 0.0 | 0.0 | 0.01 | 0.00 | 0.00 | 13 | |
| 20260904095130 | 77 | 283 | 0.0 | 0.0 | 0.01 | 0.00 | 0.00 | 13 | |
| 20260904094632 | 77 | 283 | 0.0 | 0.0 | 0.01 | 0.00 | 0.00 | 14 | |
| 20260904094131 | 77 | 283 | 0.0 | 0.0 | 0.01 | 0.00 | 0.00 | 14 | |
| 20260904093630 | 77 | 283 | 0.0 | 0.0 | 0.01 | 0.00 | 0.00 | 16 | |
| 20260904093130 | 77 | 283 | 0.0 | 0.0 | 0.01 | 0.00 | 0.00 | 18 | |
| 20260904092631 | 77 | 283 | 0.0 | 0.0 | 0.01 | 0.00 | 0.00 | 19 | |
| 20260904092131 | 77 | 283 | 0.0 | 0.0 | 0.01 | 0.00 | 0.00 | 20 | |
| 20260904091630 | 76 | 283 | 0.0 | 0.0 | 0.01 | 0.00 | 0.00 | 20 | |
| 20260904091130 | 76 | 283 | 0.0 | 0.0 | 0.01 | 0.00 | 0.00 | 21 | |
| 20260904090630 | 77 | 283 | 0.0 | 0.0 | 0.01 | 0.00 | 0.00 | 20 | |
| 20260904085630 | 77 | 283 | 0.0 | 0.0 | 0.01 | 0.00 | 0.00 | 19 | |
| 20260904085130 | 77 | 283 | 0.0 | 0.0 | 0.01 | 0.00 | 0.00 | 18 | |
| 20260904084631 | 77 | 283 | 0.0 | 0.0 | 0.01 | 0.00 | 0.00 | 17 | |
| 20260904084130 | 77 | 283 | 0.0 | 0.0 | 0.01 | 0.00 | 0.00 | 16 | |
| 20260904083630 | 77 | 283 | 0.0 | 0.0 | 0.01 | 0.00 | 0.00 | 16 | |
| 20260904083130 | 77 | 283 | 0.0 | 0.0 | 0.01 | 0.00 | 0.00 | 16 | |
| 20260904082630 | 77 | 283 | 0.0 | 0.0 | 0.01 | 0.00 | 0.00 | 16 | |
| 20260904082130 | 77 | 283 | 0.0 | 0.0 | 0.01 | 0.00 | 0.00 | 17 | |
| 20260904081630 | 77 | 283 | 0.0 | 0.0 | 0.01 | 0.00 | 0.00 | 17 | |
| 20260904081131 | 76 | 283 | 0.0 | 0.0 | 0.01 | 0.00 | 0.00 | 17 | |
| 20260904080630 | 76 | 283 | 0.0 | 0.0 | 0.01 | 0.00 | 0.00 | 17 | |
| 20260904080130 | 76 | 283 | 0.0 | 0.0 | 0.01 | 0.00 | 0.00 | 18 | |
| 20260904075130 | 75 | 222 | 0.0 | 0.0 | 0.01 | 0.00 | 0.00 | 22 | |
| 20260904074630 | 76 | 271 | 0.0 | 0.0 | 0.01 | 0.00 | 0.00 | 24 | |
| 20260904074130 | 76 | 271 | 0.0 | 0.0 | 0.01 | 0.00 | 0.00 | 25 | |
| 20260904073630 | 76 | 271 | 0.0 | 0.0 | 0.01 | 0.00 | 0.00 | 25 | |
| 20260904073130 | 76 | 271 | 0.0 | 0.0 | 0.01 | 0.00 | 0.00 | 25 | |
| 20260904072630 | 76 | 291 | 24.0 | 0.0 | 0.01 | 0.00 | 0.00 | 25 | |
| 20260904072130 | 76 | 269 | 16.0 | 0.0 | 0.01 | 0.00 | 0.00 | 25 | |
| 20260904071630 | 76 | 243 | 10.0 | 0.0 | 0.01 | 0.00 | 0.00 | 25 | |
| 20260904071130 | 77 | 290 | 0.0 | 0.0 | 0.01 | 0.00 | 0.00 | 25 | |
| 20260904070630 | 78 | 290 | 0.0 | 0.0 | 0.01 | 0.00 | 0.00 | 25 | |
| 20260904070130 | 78 | 290 | 0.0 | 0.0 | 0.01 | 0.00 | 0.00 | 25 | |
| 20260904065630 | 79 | 290 | 0.0 | 0.0 | 0.01 | 0.00 | 0.00 | 21 | |
| 20260904065130 | 80 | 290 | 3.0 | 0.0 | 0.01 | 0.00 | 0.00 | 19 | |
| 20260904064630 | 80 | 226 | 0.0 | 0.0 | 0.01 | 0.00 | 0.00 | 18 | |
| 20260904063630 | 80 | 218 | 0.0 | 0.0 | 0.01 | 0.00 | 0.00 | 18 | |
| 20260904062130 | 81 | 218 | 0.0 | 0.0 | 0.01 | 0.00 | 0.00 | 11 | |
| 20260904061630 | 82 | 218 | 0.0 | 0.0 | 0.01 | 0.00 | 0.00 | 10 | |
| 20260904061131 | 82 | 315 | 0.0 | 0.0 | 0.01 | 0.00 | 0.00 | 9 | |
| 20260904060630 | 82 | 315 | 0.0 | 0.0 | 0.01 | 0.00 | 0.00 | 8 | |
| 20260904060131 | 82 | 315 | 0.0 | 0.0 | 0.01 | 0.00 | 0.00 | 8 | |
| 20260904055630 | 82 | 315 | 0.0 | 0.0 | 0.01 | 0.00 | 0.00 | 8 | |
| 20260904055130 | 82 | 315 | 0.0 | 0.0 | 0.01 | 0.00 | 0.00 | 8 | |
| 20260904054630 | 82 | 315 | 0.0 | 0.0 | 0.01 | 0.00 | 0.00 | 8 | |
| 20260904054129 | 82 | 315 | 0.0 | 0.0 | 0.01 | 0.00 | 0.00 | 8 | |
| 20260904053630 | 82 | 315 | 0.0 | 0.0 | 0.01 | 0.00 | 0.00 | 8 | |
| 20260904053130 | 83 | 315 | 0.0 | 0.0 | 0.01 | 0.00 | 0.00 | 8 | |
| 20260904052630 | 83 | 315 | 0.0 | 0.0 | 0.01 | 0.00 | 0.00 | 8 | |
| 20260904052130 | 83 | 315 | 0.0 | 0.0 | 0.01 | 0.00 | 0.00 | 7 | |
| 20260904051630 | 83 | 315 | 0.0 | 0.0 | 0.01 | 0.00 | 0.00 | 7 | |
| 20260904051130 | 84 | 315 | 0.0 | 0.0 | 0.01 | 0.00 | 0.00 | 7 | |
| 20260904050630 | 84 | 315 | 0.0 | 0.0 | 0.01 | 0.00 | 0.00 | 7 | |
| 20260904050130 | 85 | 315 | 0.0 | 0.0 | 0.01 | 0.00 | 0.00 | 7 | |
| 20260904045630 | 86 | 315 | 0.0 | 0.0 | 0.01 | 0.00 | 0.00 | 6 | |
| 20260904045130 | 87 | 315 | 0.0 | 0.0 | 0.01 | 0.00 | 0.00 | 5 | |
| 20260904044630 | 87 | 315 | 0.0 | 0.0 | 0.01 | 0.00 | 0.00 | 3 | |
| 20260904044130 | 87 | 315 | 0.0 | 0.0 | 0.01 | 0.00 | 0.00 | 4 | |
| 20260904043630 | 87 | 315 | 0.0 | 0.0 | 0.01 | 0.00 | 0.00 | 3 | |
| 20260904043129 | 87 | 315 | 0.0 | 0.0 | 0.01 | 0.00 | 0.00 | 3 | |
| 20260904042630 | 87 | 315 | 0.0 | 0.0 | 0.01 | 0.00 | 0.00 | 3 | |
| 20260904042130 | 87 | 315 | 0.0 | 0.0 | 0.01 | 0.00 | 0.00 | 3 | |
| 20260904041630 | 88 | 315 | 0.0 | 0.0 | 0.01 | 0.00 | 0.00 | 3 | |
| 20260904041129 | 88 | 315 | 0.0 | 0.0 | 0.01 | 0.00 | 0.00 | 3 | |
| 20260904040629 | 88 | 315 | 0.0 | 0.0 | 0.01 | 0.00 | 0.00 | 3 | |
| 20260904040129 | 88 | 315 | 0.0 | 0.0 | 0.01 | 0.00 | 0.00 | 3 | |
| 20260904035629 | 88 | 315 | 0.0 | 0.0 | 0.01 | 0.00 | 0.00 | 3 | |
| 20260904035129 | 88 | 315 | 0.0 | 0.0 | 0.01 | 0.00 | 0.00 | 3 | |
| 20260904034629 | 88 | 315 | 0.0 | 0.0 | 0.01 | 0.00 | 0.00 | 3 | |
| 20260904034130 | 88 | 315 | 0.0 | 0.0 | 0.01 | 0.00 | 0.00 | 3 | |
| 20260904033630 | 88 | 315 | 0.0 | 0.0 | 0.01 | 0.00 | 0.00 | 3 | |
| 20260904033129 | 88 | 315 | 0.0 | 0.0 | 0.01 | 0.00 | 0.00 | 3 | |
| 20260904032630 | 88 | 315 | 0.0 | 0.0 | 0.01 | 0.00 | 0.00 | 3 | |
| 20260904032129 | 88 | 315 | 0.0 | 0.0 | 0.01 | 0.00 | 0.00 | 3 | |
| 20260904031630 | 88 | 315 | 0.0 | 0.0 | 0.01 | 0.00 | 0.00 | 3 | |
| 20260904031130 | 88 | 315 | 0.0 | 0.0 | 0.01 | 0.00 | 0.00 | 3 | |
| 20260904030629 | 88 | 315 | 0.0 | 0.0 | 0.01 | 0.00 | 0.00 | 3 | |
| 20260904030129 | 88 | 315 | 0.0 | 0.0 | 0.01 | 0.00 | 0.00 | 3 | |
| 20260904025629 | 88 | 315 | 0.0 | 0.0 | 0.01 | 0.00 | 0.00 | 3 | |
| 20260904025129 | 89 | 315 | 0.0 | 0.0 | 0.01 | 0.00 | 0.00 | 3 | |
| 20260904024630 | 89 | 315 | 0.0 | 0.0 | 0.01 | 0.00 | 0.00 | 2 | |
| 20260904024130 | 89 | 315 | 0.0 | 0.0 | 0.01 | 0.00 | 0.00 | 2 | |
| 20260904023630 | 89 | 315 | 0.0 | 0.0 | 0.01 | 0.00 | 0.00 | 2 | |
| 20260904023129 | 89 | 315 | 0.0 | 0.0 | 0.01 | 0.00 | 0.00 | 2 | |
| 20260904022630 | 89 | 315 | 0.0 | 0.0 | 0.01 | 0.00 | 0.00 | 2 | |
| 20260904022130 | 89 | 315 | 0.0 | 0.0 | 0.01 | 0.00 | 0.00 | 2 | |
| 20260904021629 | 89 | 315 | 0.0 | 0.0 | 0.01 | 0.00 | 0.00 | 2 | |
| 20260904021130 | 89 | 315 | 0.0 | 0.0 | 0.01 | 0.00 | 0.00 | 2 | |
| 20260904020629 | 89 | 315 | 0.0 | 0.0 | 0.01 | 0.00 | 0.00 | 2 | |
| 20260904020130 | 89 | 315 | 0.0 | 0.0 | 0.01 | 0.00 | 0.00 | 2 | |
| 20260904015630 | 90 | 315 | 0.0 | 0.0 | 0.01 | 0.00 | 0.00 | 2 | |
| 20260904015129 | 90 | 315 | 0.0 | 0.0 | 0.01 | 0.00 | 0.00 | 1 | |
| 20260904014630 | 90 | 315 | 0.0 | 0.0 | 0.01 | 0.00 | 0.00 | 1 | |
| 20260904014130 | 90 | 315 | 0.0 | 0.0 | 0.01 | 0.00 | 0.00 | 1 | |
| 20260904013629 | 90 | 315 | 0.0 | 0.0 | 0.01 | 0.00 | 0.00 | 1 | |
| 20260904013130 | 91 | 315 | 0.0 | 0.0 | 0.01 | 0.00 | 0.00 | 1 | |
| 20260904012629 | 91 | 315 | 0.0 | 0.0 | 0.01 | 0.00 | 0.00 | 1 | |
| 20260904012129 | 91 | 315 | 0.0 | 0.0 | 0.01 | 0.00 | 0.00 | 1 | |
| 20260904011630 | 91 | 315 | 0.0 | 0.0 | 0.01 | 0.00 | 0.00 | 1 | |
| 20260904011130 | 91 | 315 | 0.0 | 0.0 | 0.01 | 0.00 | 0.00 | 1 | |
| 20260904010629 | 92 | 315 | 0.0 | 0.0 | 0.01 | 0.00 | 0.00 | 1 | |
| 20260904010129 | 92 | 315 | 0.0 | 0.0 | 0.01 | 0.00 | 0.00 | 1 | |
| 20260904005629 | 92 | 315 | 0.0 | 0.0 | 0.01 | 0.00 | 0.00 | 1 | |
| 20260904005129 | 92 | 315 | 0.0 | 0.0 | 0.01 | 0.00 | 0.00 | 1 | |
| 20260904004630 | 93 | 315 | 0.0 | 0.0 | 0.01 | 0.00 | 0.00 | 1 | |
| 20260904004130 | 93 | 315 | 0.0 | 0.0 | 0.01 | 0.00 | 0.00 | 0 | |
| 20260904003630 | 93 | 315 | 0.0 | 0.0 | 0.01 | 0.00 | 0.00 | 0 | |
| 20260904003130 | 94 | 315 | 0.0 | 0.0 | 0.01 | 0.00 | 0.00 | 0 | |
| 20260904002630 | 95 | 315 | 0.0 | 0.0 | 0.01 | 0.00 | 0.00 | 0 | |
| 20260904002129 | 95 | 315 | 0.0 | 0.0 | 0.01 | 0.00 | 0.00 | 0 | |
| 20260904001629 | 95 | 315 | 0.0 | 0.0 | 0.01 | 0.00 | 0.00 | 0 | |
| 20260904001130 | 95 | 315 | 0.0 | 0.0 | 0.01 | 0.00 | 0.00 | 0 | |
| 20260904000630 | 95 | 315 | 0.0 | 0.0 | 0.01 | 0.00 | 0.00 | 0 | |
| 20260904000130 | 95 | 315 | 0.0 | 0.0 | 0.01 | 0.00 | 0.00 | 0 | |
| 20260903235630 | 95 | 315 | 0.0 | 0.0 | 0.01 | 0.00 | 0.00 | 0 | |
| 20260903235130 | 95 | 315 | 0.0 | 0.0 | 0.01 | 0.00 | 0.00 | 0 | |
| 20260903234630 | 96 | 315 | 0.0 | 0.0 | 0.01 | 0.00 | 0.00 | 0 | |
| 20260903234130 | 96 | 315 | 0.0 | 0.0 | 0.01 | 0.00 | 0.00 | 0 | |
| 20260903233629 | 96 | 315 | 0.0 | 0.0 | 0.01 | 0.00 | 0.00 | 0 | |
| 20260903233129 | 96 | 315 | 0.0 | 0.0 | 0.01 | 0.00 | 0.00 | 0 | |
| 20260903232630 | 97 | 315 | 0.0 | 0.0 | 0.01 | 0.00 | 0.00 | 0 | |
| 20260903232130 | 97 | 315 | 0.0 | 0.0 | 0.01 | 0.00 | 0.00 | 0 | |
| 20260903231630 | 97 | 315 | 0.0 | 0.0 | 0.01 | 0.00 | 0.00 | 0 | |
| 20260903231130 | 97 | 315 | 0.0 | 0.0 | 0.01 | 0.00 | 0.00 | 0 | |
| 20260903230630 | 97 | 315 | 0.0 | 0.0 | 0.01 | 0.00 | 0.00 | 0 | |
| 20260903230130 | 98 | 315 | 0.0 | 0.0 | 0.01 | 0.00 | 0.00 | 0 | |
| 20260903225630 | 97 | 315 | 0.0 | 0.0 | 0.01 | 0.00 | 0.00 | 0 | |
| 20260903225129 | 97 | 315 | 0.0 | 0.0 | 0.01 | 0.00 | 0.00 | 0 | |
| 20260903224630 | 98 | 315 | 0.0 | 0.0 | 0.01 | 0.00 | 0.00 | 0 | |
| 20260903224129 | 98 | 315 | 0.0 | 0.0 | 0.01 | 0.00 | 0.00 | 0 | |
| 20260903223629 | 98 | 315 | 0.0 | 0.0 | 0.01 | 0.00 | 0.00 | 0 | |
| 20260903223130 | 98 | 315 | 0.0 | 0.0 | 0.01 | 0.00 | 0.00 | 0 | |
| 20260903222630 | 98 | 315 | 0.0 | 0.0 | 0.01 | 0.00 | 0.00 | 0 | |
| 20260903222130 | 99 | 315 | 0.0 | 0.0 | 0.01 | 0.00 | 0.00 | 0 | |
| 20260903221630 | 100 | 315 | 0.0 | 0.0 | 0.01 | 0.00 | 0.00 | 0 | |
| 20260903221129 | 100 | 315 | 0.0 | 0.0 | 0.01 | 0.00 | 0.00 | 0 | |
| 20260903220630 | 99 | 315 | 0.0 | 0.0 | 0.01 | 0.00 | 0.00 | 0 | |
| 20260903220130 | 99 | 315 | 0.0 | 0.0 | 0.01 | 0.00 | 0.00 | 0 | |
| 20260903215629 | 99 | 315 | 0.0 | 0.0 | 0.01 | 0.00 | 0.00 | 0 | |
| 20260903215129 | 98 | 315 | 0.0 | 0.0 | 0.01 | 0.00 | 0.00 | 0 | |
| 20260903214630 | 98 | 315 | 0.0 | 0.0 | 0.01 | 0.00 | 0.00 | 0 | |
| 20260903214129 | 97 | 315 | 0.0 | 0.0 | 0.01 | 0.00 | 0.00 | 0 | |
| 20260903213629 | 97 | 315 | 0.0 | 0.0 | 0.01 | 0.00 | 0.00 | 0 | |
| 20260903213130 | 97 | 315 | 0.0 | 0.0 | 0.01 | 0.00 | 0.00 | 0 | |
| 20260903212629 | 98 | 315 | 0.0 | 0.0 | 0.01 | 0.00 | 0.00 | 0 | |
| 20260903212129 | 98 | 315 | 0.0 | 0.0 | 0.01 | 0.00 | 0.00 | 0 | |
| 20260903211629 | 98 | 315 | 0.0 | 0.0 | 0.01 | 0.00 | 0.00 | 0 | |
| 20260903211130 | 98 | 315 | 0.0 | 0.0 | 0.01 | 0.00 | 0.00 | 0 | |
| 20260903210629 | 98 | 315 | 0.0 | 0.0 | 0.01 | 0.00 | 0.00 | 0 | |
| 20260903210130 | 98 | 315 | 0.0 | 0.0 | 0.01 | 0.00 | 0.00 | 0 | |
| 20260903205629 | 97 | 315 | 0.0 | 0.0 | 0.01 | 0.00 | 0.00 | 0 | |
| 20260903205129 | 98 | 315 | 0.0 | 0.0 | 0.01 | 0.00 | 0.00 | 0 | |
| 20260903204631 | 98 | 315 | 0.0 | 0.0 | 0.01 | 0.00 | 0.00 | 0 | |
| 20260903204129 | 99 | 315 | 0.0 | 0.0 | 0.01 | 0.00 | 0.00 | 0 | |
| 20260903203629 | 99 | 315 | 0.0 | 0.0 | 0.01 | 0.00 | 0.00 | 0 | |
| 20260903203129 | 98 | 315 | 0.0 | 0.0 | 0.01 | 0.00 | 0.00 | 0 | |
| 20260903202630 | 97 | 315 | 0.0 | 0.0 | 0.01 | 0.00 | 0.00 | 0 | |
| 20260903202129 | 97 | 315 | 0.0 | 0.0 | 0.01 | 0.00 | 0.00 | 0 | |
| 20260903201630 | 97 | 315 | 0.0 | 0.0 | 0.01 | 0.00 | 0.00 | 0 | |
| 20260903201130 | 97 | 315 | 0.0 | 0.0 | 0.01 | 0.00 | 0.00 | 0 | |
| 20260903200629 | 98 | 315 | 0.0 | 0.0 | 0.01 | 0.00 | 0.00 | 0 | |
| 20260903200130 | 97 | 315 | 0.0 | 0.0 | 0.01 | 0.00 | 0.00 | 0 | |
| 20260903195630 | 97 | 315 | 0.0 | 0.0 | 0.01 | 0.00 | 0.00 | 0 | |
| 20260903195130 | 97 | 315 | 0.0 | 0.0 | 0.01 | 0.00 | 0.00 | 0 | |
| 20260903194630 | 96 | 315 | 0.0 | 0.0 | 0.01 | 0.00 | 0.00 | 0 | |
| 20260903194130 | 95 | 315 | 0.0 | 0.0 | 0.01 | 0.00 | 0.00 | 1 | |
| 20260903193629 | 94 | 315 | 0.0 | 0.0 | 0.01 | 0.00 | 0.00 | 1 | |
| 20260903193129 | 93 | 315 | 0.0 | 0.0 | 0.01 | 0.00 | 0.00 | 1 | |
| 20260903192630 | 94 | 315 | 0.0 | 0.0 | 0.01 | 0.00 | 0.00 | 1 | |
| 20260903192129 | 94 | 315 | 0.0 | 0.0 | 0.01 | 0.00 | 0.00 | 1 | |
| 20260903191629 | 94 | 315 | 0.0 | 0.0 | 0.01 | 0.00 | 0.00 | 1 | |
| 20260903191130 | 94 | 315 | 0.0 | 0.0 | 0.01 | 0.00 | 0.00 | 1 | |
| 20260903190632 | 94 | 315 | 0.0 | 0.0 | 0.01 | 0.00 | 0.00 | 1 | |
| 20260903190130 | 94 | 315 | 0.0 | 0.0 | 0.01 | 0.00 | 0.00 | 2 | |
| 20260903185629 | 93 | 315 | 0.0 | 0.0 | 0.01 | 0.00 | 0.00 | 2 | |
| 20260903185129 | 93 | 315 | 0.0 | 0.0 | 0.01 | 0.00 | 0.00 | 2 | |
| 20260903184129 | 92 | 315 | 0.0 | 0.0 | 0.01 | 0.00 | 0.00 | 2 | |
| 20260903183130 | 93 | 315 | 0.0 | 0.0 | 0.01 | 0.00 | 0.00 | 2 | |
| 20260903182630 | 93 | 315 | 0.0 | 0.0 | 0.01 | 0.00 | 0.00 | 2 | |
| 20260903182130 | 93 | 315 | 0.0 | 0.0 | 0.01 | 0.00 | 0.00 | 2 | |
| 20260903181629 | 92 | 315 | 0.0 | 0.0 | 0.01 | 0.00 | 0.00 | 3 | |
| 20260903181130 | 91 | 315 | 0.0 | 0.0 | 0.01 | 0.00 | 0.00 | 3 | |
| 20260903180629 | 91 | 315 | 0.0 | 0.0 | 0.01 | 0.00 | 0.00 | 3 | |
| 20260903180130 | 90 | 315 | 0.0 | 0.0 | 0.01 | 0.00 | 0.00 | 3 | |
| 20260903175629 | 90 | 315 | 0.0 | 0.0 | 0.01 | 0.00 | 0.00 | 3 | |
| 20260903175129 | 90 | 315 | 0.0 | 0.0 | 0.01 | 0.00 | 0.00 | 3 | |
| 20260903174630 | 89 | 315 | 0.0 | 0.0 | 0.01 | 0.00 | 0.00 | 4 | |
| 20260903174130 | 89 | 315 | 0.0 | 0.0 | 0.01 | 0.00 | 0.00 | 4 | |
| 20260903173630 | 89 | 315 | 0.0 | 0.0 | 0.01 | 0.00 | 0.00 | 4 | |
| 20260903173129 | 90 | 315 | 0.0 | 0.0 | 0.01 | 0.00 | 0.00 | 3 | |
| 20260903172629 | 90 | 288 | 0.0 | 0.0 | 0.01 | 0.00 | 0.00 | 4 | |
| 20260903172130 | 89 | 288 | 0.0 | 0.0 | 0.01 | 0.00 | 0.00 | 4 | |
| 20260903171629 | 89 | 288 | 0.0 | 0.0 | 0.01 | 0.00 | 0.00 | 4 | |
| 20260903171129 | 88 | 288 | 0.0 | 0.0 | 0.01 | 0.00 | 0.00 | 4 | |
| 20260903170629 | 88 | 288 | 0.0 | 0.0 | 0.01 | 0.00 | 0.00 | 5 | |
| 20260903170129 | 87 | 288 | 0.0 | 0.0 | 0.01 | 0.00 | 0.00 | 5 | |
| 20260903165629 | 87 | 288 | 0.0 | 0.0 | 0.01 | 0.00 | 0.00 | 5 | |
| 20260903165129 | 87 | 269 | 0.0 | 0.0 | 0.01 | 0.00 | 0.00 | 5 | |
| 20260903164629 | 88 | 269 | 0.0 | 0.0 | 0.01 | 0.00 | 0.00 | 5 | |
| 20260903164130 | 88 | 297 | 0.0 | 0.0 | 0.01 | 0.00 | 0.00 | 4 | |
| 20260903163629 | 88 | 297 | 0.0 | 0.0 | 0.01 | 0.00 | 0.00 | 5 | |
| 20260903163130 | 88 | 297 | 0.0 | 0.0 | 0.01 | 0.00 | 0.00 | 5 | |
| 20260903162630 | 87 | 297 | 0.0 | 0.0 | 0.01 | 0.00 | 0.00 | 5 | |
| 20260903162130 | 87 | 297 | 0.0 | 0.0 | 0.01 | 0.00 | 0.00 | 5 | |
| 20260903161629 | 86 | 297 | 0.0 | 0.0 | 0.01 | 0.00 | 0.00 | 5 | |
| 20260903161130 | 85 | 297 | 0.0 | 0.0 | 0.01 | 0.00 | 0.00 | 6 | |
| 20260903160628 | 85 | 297 | 0.0 | 0.0 | 0.01 | 0.00 | 0.00 | 6 | |
| 20260903160129 | 85 | 297 | 0.0 | 0.0 | 0.01 | 0.00 | 0.00 | 6 | |
| 20260903155631 | 85 | 297 | 0.0 | 0.0 | 0.01 | 0.00 | 0.00 | 6 | |
| 20260903155130 | 85 | 297 | 0.0 | 0.0 | 0.01 | 0.00 | 0.00 | 6 | |
| 20260903154629 | 85 | 297 | 0.0 | 0.0 | 0.01 | 0.00 | 0.00 | 6 | |
| 20260903154129 | 84 | 297 | 0.0 | 0.0 | 0.01 | 0.00 | 0.00 | 6 | |
| 20260903153629 | 84 | 319 | 11.0 | 0.0 | 0.01 | 0.00 | 0.00 | 6 | |
| 20260903153130 | 84 | 285 | 0.0 | 0.0 | 0.01 | 0.00 | 0.00 | 6 | |
| 20260903152630 | 85 | 288 | 21.0 | 0.0 | 0.01 | 0.00 | 0.00 | 6 | |
| 20260903152129 | 84 | 319 | 0.0 | 0.0 | 0.01 | 0.00 | 0.00 | 6 | |
| 20260903151629 | 84 | 319 | 0.0 | 0.0 | 0.01 | 0.00 | 0.00 | 7 | |
| 20260903151130 | 84 | 319 | 0.0 | 0.0 | 0.01 | 0.00 | 0.00 | 7 | |
| 20260903150629 | 83 | 319 | 0.0 | 0.0 | 0.01 | 0.00 | 0.00 | 7 | |
| 20260903150129 | 83 | 319 | 0.0 | 0.0 | 0.01 | 0.00 | 0.00 | 8 | |
| 20260903145629 | 82 | 276 | 0.0 | 0.0 | 0.01 | 0.00 | 0.00 | 8 | |
| 20260903145129 | 82 | 276 | 0.0 | 0.0 | 0.01 | 0.00 | 0.00 | 8 | |
| 20260903144629 | 82 | 276 | 0.0 | 0.0 | 0.01 | 0.00 | 0.00 | 8 | |
| 20260903144130 | 81 | 276 | 0.0 | 0.0 | 0.01 | 0.00 | 0.00 | 9 | |
| 20260903143629 | 81 | 276 | 0.0 | 0.0 | 0.01 | 0.00 | 0.00 | 9 | |
| 20260903143129 | 81 | 276 | 0.0 | 0.0 | 0.01 | 0.00 | 0.00 | 9 | |
| 20260903142630 | 81 | 300 | 15.0 | 0.0 | 0.01 | 0.00 | 0.00 | 9 | |
| 20260903142129 | 80 | 305 | 0.0 | 0.0 | 0.01 | 0.00 | 0.00 | 9 | |
| 20260903141629 | 80 | 329 | 0.0 | 0.0 | 0.01 | 0.00 | 0.00 | 9 | |
| 20260903141129 | 80 | 298 | 0.0 | 0.0 | 0.01 | 0.00 | 0.00 | 9 | |
| 20260903140630 | 80 | 298 | 0.0 | 0.0 | 0.01 | 0.00 | 0.00 | 9 | |
| 20260903140130 | 80 | 271 | 0.0 | 0.0 | 0.01 | 0.00 | 0.00 | 9 | |
| 20260903135628 | 81 | 271 | 0.0 | 0.0 | 0.01 | 0.00 | 0.00 | 9 | |
| 20260903135129 | 80 | 274 | 0.0 | 0.0 | 0.01 | 0.00 | 0.00 | 9 | |
| 20260903134629 | 80 | 274 | 0.0 | 0.0 | 0.01 | 0.00 | 0.00 | 9 | |
| 20260903134130 | 80 | 274 | 0.0 | 0.0 | 0.01 | 0.00 | 0.00 | 9 | |
| 20260903133629 | 80 | 274 | 0.0 | 0.0 | 0.01 | 0.00 | 0.00 | 9 | |
| 20260903133130 | 80 | 274 | 0.0 | 0.0 | 0.01 | 0.00 | 0.00 | 9 | |
| 20260903132630 | 80 | 274 | 0.0 | 0.0 | 0.01 | 0.00 | 0.00 | 9 | |
| 20260903132130 | 80 | 304 | 0.0 | 0.0 | 0.01 | 0.00 | 0.00 | 9 | |
| 20260903131630 | 80 | 304 | 0.0 | 0.0 | 0.01 | 0.00 | 0.00 | 9 | |
| 20260903131130 | 80 | 304 | 0.0 | 0.0 | 0.01 | 0.00 | 0.00 | 9 | |
| 20260903130630 | 80 | 304 | 0.0 | 0.0 | 0.01 | 0.00 | 0.00 | 9 | |
| 20260903130130 | 80 | 304 | 0.0 | 0.0 | 0.01 | 0.00 | 0.00 | 8 | |
| 20260903125628 | 80 | 304 | 0.0 | 0.0 | 0.01 | 0.00 | 0.00 | 8 | |
| 20260903125129 | 80 | 304 | 0.0 | 0.0 | 0.01 | 0.00 | 0.00 | 8 | |
| 20260903124628 | 80 | 304 | 0.0 | 0.0 | 0.01 | 0.00 | 0.00 | 8 | |
| 20260903124130 | 79 | 304 | 0.0 | 0.0 | 0.01 | 0.00 | 0.00 | 8 | |
| 20260903123630 | 79 | 304 | 0.0 | 0.0 | 0.01 | 0.00 | 0.00 | 8 | |
| 20260903123128 | 79 | 304 | 0.0 | 0.0 | 0.01 | 0.00 | 0.00 | 8 | |
| 20260903122631 | 79 | 304 | 0.0 | 0.0 | 0.01 | 0.00 | 0.00 | 8 | |
| 20260903122130 | 79 | 304 | 0.0 | 0.0 | 0.01 | 0.00 | 0.00 | 9 | |
| 20260903121629 | 79 | 304 | 0.0 | 0.0 | 0.01 | 0.00 | 0.00 | 9 | |
| 20260903121130 | 79 | 304 | 0.0 | 0.0 | 0.01 | 0.00 | 0.00 | 9 | |
| 20260903120629 | 78 | 271 | 20.0 | 0.0 | 0.01 | 0.00 | 0.00 | 9 | |
| 20260903120130 | 78 | 249 | 0.0 | 0.0 | 0.01 | 0.00 | 0.00 | 9 | |
| 20260903115629 | 79 | 249 | 0.0 | 0.0 | 0.01 | 0.00 | 0.00 | 9 | |
| 20260903115129 | 79 | 249 | 0.0 | 0.0 | 0.01 | 0.00 | 0.00 | 9 | |
| 20260903114629 | 79 | 249 | 0.0 | 0.0 | 0.01 | 0.00 | 0.00 | 9 | |
| 20260903114130 | 80 | 249 | 0.0 | 0.0 | 0.01 | 0.00 | 0.00 | 9 | |
| 20260903113629 | 80 | 249 | 0.0 | 0.0 | 0.01 | 0.00 | 0.00 | 9 | |
| 20260903113129 | 80 | 249 | 0.0 | 0.0 | 0.01 | 0.00 | 0.00 | 9 | |
| 20260903112628 | 80 | 249 | 0.0 | 0.0 | 0.01 | 0.00 | 0.00 | 9 | |
| 20260903112128 | 80 | 249 | 0.0 | 0.0 | 0.01 | 0.00 | 0.00 | 8 | |
| 20260903111629 | 80 | 249 | 0.0 | 0.0 | 0.01 | 0.00 | 0.00 | 8 |